Regional Weather Roundup
Issued by NWS Lake Charles, LA

Home | Current Version | Previous Version | Text Only | Print | Product List | Glossary On
Versions: 1 2 3 4 5 6 7 8 9 10 11 12 13 14 15 16 17 18 19 20 21 22 23 24 25 26 27 28 29 30 31 32 33 34 35 36 37 38 39 40 41 42 43 44 45 46 47 48 49 50
000
ASUS44 KLCH 180110
RWRLCH
REGIONAL WEATHER ROUNDUP
NATIONAL WEATHER SERVICE LAKE CHARLES LA
700 PM CST FRI NOV 17 2017

Note: "fair" indicates few or no clouds below 12,000 feet with no
significant weather and/or obstructions to visibility.


ACROSS SOUTHEAST TEXAS

CITY           SKY/WX    TMP DP  RH WIND       PRES   REMARKS
BEAUMONT       CLEAR     72  68  87 S9        29.93S
BEAUMONT CITY  FAIR      72  68  88 S6        29.94R
ORANGE         MOCLDY    73  70  91 S7        29.96R
JASPER         CLEAR     73  69  86 S7        29.93S
$$

ACROSS CENTRAL LOUISIANA

CITY           SKY/WX    TMP DP  RH WIND       PRES   REMARKS
LEESVILLE      CLOUDY    72  66  81 S13       29.92S
FULLERTON      MOCLDY    72  66  81 MISG      29.91S
ALEXANDRIA INT PTCLDY    71  64  78 S13       29.91S
ESLER FIELD    CLEAR     71  64  78 S7        29.93S
DERIDDER       CLOUDY    72  66  81 S8        29.96R
OAKDALE        CLOUDY    70  64  82 S3        29.95S
OPELOUSAS      FAIR      68  62  79 S8        29.97R
$$

ACROSS SOUTHWEST AND SOUTH CENTRAL LOUISIANA

CITY           SKY/WX    TMP DP  RH WIND       PRES   REMARKS
SULPHUR        CLOUDY    73  67  81 S9        29.96S
LAKE CHARLES   PTCLDY    71  68  90 S7        29.95S
CHENNAULT INT  PTCLDY    68  66  94 SE5       29.96R
CAMERON PHI    PTCLDY    73  70  88 S12       29.96S
DEQUINCY       CLOUDY    72  65  81 S8        29.94S
JENNINGS       FAIR      69  64  82 S6        29.97R
LAFAYETTE      CLEAR     71  65  81 S7        29.98F
NEW IBERIA     CLEAR     66  62  87 S7        29.99F
ABBEVILLE      FAIR      67  66  97 SE7       29.98F
PATTERSON      CLEAR     67  64  90 SE6       30.01S
SALT POINT       N/A     69  66  90 SE3       29.99S
$$

SELECTED SITES ACROSS THE REGION

CITY           SKY/WX    TMP DP  RH WIND       PRES   REMARKS
HOUSTON BUSH   CLOUDY    77  66  68 S8        29.90R
HOUSTON HOBBY  MOCLDY    74  68  81 S10       29.91S
GALVESTON      CLEAR     72  72 100 S9        29.94S
COLLEGE STAT   CLOUDY    77  66  68 S15       29.85S
CONROE         PTCLDY    76  66  71 S12       29.88S
HUNTSVILLE     MOCLDY    76  64  66 S12G20    29.86S
LUFKIN         CLEAR     73  66  78 S12       29.86S
SHREVEPORT     MOCLDY    73  67  81 S10       29.83S
MONROE         CLEAR     72  62  71 S9        29.89S
NATCHEZ MS     CLEAR     67  58  72 S7        29.96R
BATON ROUGE    CLEAR     69  58  67 S13       29.99S
N.O. INTL ARPT CLEAR     68  64  87 S6        30.02S
SLIDELL        CLEAR     66  63  90 S3        30.02S
$$

MARINE REPORTS

STATION/POSITION TIME  SKY/WX   TEMP    WIND        PRES    VSBY
                                AIR SEA DIR/SP/G
                 (UTC)          (F)     (DEG/KT/KT) (MB)    (MI)
BUOY 30 S HIGH I 2350            74 72  180/  6/  8 1014.0
WVE H/P(F/S)=  2/ 4

SEA RIM ST PARK  0100            73     180/  9/ 11 1014.3S
PORT ARTHUR      NOT AVBL
SABINE PASS N    NOT AVBL
TEXAS POINT      NOT AVBL
CALCASIEU PASS   NOT AVBL
LK CHARLES BEACH NOT AVBL
MARSH ISLAND     0000            75                   N/A
FRESH WATER LOCK NOT AVBL
AMERADA PASS     NOT AVBL
$$



USA.gov is the U.S. government's official web portal to all federal, state and local government web resources and services.